Weather History for Larnaca, Cyprus

Change the Weather History Date:

Wednesday, November 21, 2012

  Actual Average Record
Temperature  
Mean Temperature 64 °F -  
Max Temperature 73 °F 66 °F 77 °F (1998)
Min Temperature 55 °F 50 °F 48 °F (2005)
Degree Days  
Heating Degree Days 1    
Growing Degree Days 14 (Base 50)    
Moisture  
Dew Point 53 °F    
Average Humidity 67    
Maximum Humidity 88    
Minimum Humidity 45    
Precipitation  
Precipitation 0.00 in 0.09 in - ()
Sea Level Pressure  
Sea Level Pressure 30.01 in    
Wind  
Wind Speed 5 mph ()    
Max Wind Speed 9 mph    
Max Gust Speed -    
Visibility 6.9 miles    
Events      
Averages and records for this station are not official NWS values.
T = Trace of Precipitation, MM = Missing Value Source: Averaged Metar Reports

Daily Weather History Graph

Daily Weather History Graph

Search for Another Location

Airport:

Trip Planner

Search our weather history database for the weather conditions in past years. The results will help you decide how hot, cold, wet, or windy it might be!

Date:

Astronomy

Nov. 21, 2012 Rise Set
Actual Time 6:25 AM EET 4:36 PM EET
Civil Twilight 5:58 AM EET 5:04 PM EET
Nautical Twilight 5:27 AM EET 5:34 PM EET
Astronomical Twilight 4:57 AM EET 6:05 PM EET
Moon 12:29 PM EET (11/21) No Moon Set
Length of Visible Light 11h 05m
Length of Day
10h 11m
First Quarter, 58% of the Moon is Illuminated
Nov 21
First Quarter
Nov 28
Full
Dec 6
Last Quarter
Dec 13
New
Dec 20
First Quarter

Hourly Weather History & Observations

Time (EET) Temp. Dew Point Humidity Pressure Visibility Wind Dir Wind Speed Gust Speed Precip Events Conditions
12:00 AM 57.2 °F 51.8 °F 82% 30.04 in - NNW 4.6 mph - N/A   Clear
12:30 AM 57.2 °F 51.8 °F 82% 30.04 in - North 2.3 mph - N/A   Clear
1:00 AM 57.2 °F 51.8 °F 82% 30.04 in - North 3.5 mph - N/A   Clear
1:30 AM 57.2 °F 51.8 °F 82% 30.04 in - WNW 2.3 mph - N/A   Clear
2:00 AM 58 °F 53 °F 78% 30.04 in 12 mi North 5.8 mph - -   Scattered Clouds
2:00 AM 57.2 °F 53.6 °F 88% 30.04 in - North 5.8 mph - N/A   Clear
2:30 AM 59.0 °F 51.8 °F 77% 30.04 in - NNW 5.8 mph - N/A   Clear
3:00 AM 57.2 °F 50.0 °F 77% 30.04 in - NW 6.9 mph - N/A   Clear
3:30 AM 57.2 °F 50.0 °F 77% 30.04 in - NW 5.8 mph - N/A   Clear
4:00 AM 57.2 °F 48.2 °F 72% 30.01 in - WNW 4.6 mph - N/A   Clear
4:30 AM 57.2 °F 50.0 °F 77% 30.01 in - NW 6.9 mph - N/A   Clear
5:00 AM 59.0 °F 50.0 °F 72% 30.01 in - NW 6.9 mph - N/A   Clear
5:30 AM 57.2 °F 48.2 °F 72% 30.04 in - WNW 5.8 mph - N/A   Clear
6:00 AM 59.0 °F 48.2 °F 67% 30.04 in 6.2 mi NW 5.8 mph - N/A   Partly Cloudy
6:30 AM 59.0 °F 50.0 °F 72% 30.04 in 6.2 mi WNW 6.9 mph - N/A   Partly Cloudy
7:00 AM 59.0 °F 50.0 °F 72% 30.04 in 6.2 mi NW 8.1 mph - N/A   Partly Cloudy
7:30 AM 62.6 °F 50.0 °F 63% 30.06 in 6.2 mi NW 8.1 mph - N/A   Partly Cloudy
8:00 AM 65 °F 50 °F 48% 30.07 in 9 mi NW 5.8 mph - -   Scattered Clouds
8:00 AM 64.4 °F 50.0 °F 59% 30.06 in 6.2 mi NW 5.8 mph - N/A   Partly Cloudy
8:30 AM 66.2 °F 51.8 °F 60% 30.06 in 6.2 mi NNW 4.6 mph - N/A   Partly Cloudy
9:00 AM 69.8 °F 53.6 °F 56% 30.06 in 6.2 mi NNW 3.5 mph - N/A   Partly Cloudy
9:30 AM 71.6 °F 59.0 °F 64% 30.06 in 6.2 mi North 9.2 mph - N/A   Partly Cloudy
10:00 AM 71.6 °F 55.4 °F 57% 30.04 in 6.2 mi North 6.9 mph - N/A   Partly Cloudy
10:30 AM 71.6 °F 55.4 °F 57% 30.04 in 6.2 mi NE 6.9 mph - N/A   Partly Cloudy
11:00 AM 73.4 °F 53.6 °F 50% 30.01 in 6.2 mi NNE 8.1 mph - N/A   Partly Cloudy
11:30 AM 73.4 °F 55.4 °F 53% 30.01 in 6.2 mi NE 8.1 mph - N/A   Partly Cloudy
12:00 PM 73.4 °F 55.4 °F 53% 30.01 in 6.2 mi NE 5.8 mph - N/A   Partly Cloudy
12:30 PM 73.4 °F 53.6 °F 50% 30.01 in 6.2 mi East 5.8 mph - N/A   Partly Cloudy
1:00 PM 73.4 °F 55.4 °F 53% 29.98 in 6.2 mi ESE 5.8 mph - N/A   Partly Cloudy
1:30 PM 73.4 °F 55.4 °F 53% 29.98 in 6.2 mi ESE 6.9 mph - N/A   Partly Cloudy
2:00 PM 73 °F 56 °F 45% 29.99 in 16 mi ESE 8.1 mph - -   Scattered Clouds
2:00 PM 73.4 °F 55.4 °F 53% 29.98 in 6.2 mi ESE 8.1 mph - N/A   Partly Cloudy
2:30 PM 73.4 °F 55.4 °F 53% 29.98 in 6.2 mi ESE 8.1 mph - N/A   Partly Cloudy
3:00 PM 73.4 °F 53.6 °F 50% 29.98 in 6.2 mi ESE 6.9 mph - N/A   Partly Cloudy
3:30 PM 71.6 °F 55.4 °F 57% 29.98 in 6.2 mi ESE 6.9 mph - N/A   Partly Cloudy
4:00 PM 71.6 °F 53.6 °F 53% 29.98 in 6.2 mi ESE 8.1 mph - N/A   Partly Cloudy
4:30 PM 69.8 °F 53.6 °F 56% 29.98 in 6.2 mi ESE 5.8 mph - N/A   Partly Cloudy
5:00 PM 68.0 °F 53.6 °F 60% 29.98 in 6.2 mi ESE 4.6 mph - N/A   Partly Cloudy
5:30 PM 68.0 °F 53.6 °F 60% 29.98 in 6.2 mi East 5.8 mph - N/A   Partly Cloudy
6:00 PM 68.0 °F 53.6 °F 60% 29.98 in 6.2 mi East 4.6 mph - N/A   Partly Cloudy
6:30 PM 64.4 °F 53.6 °F 68% 29.98 in 6.2 mi East 5.8 mph - N/A   Partly Cloudy
7:00 PM 62.6 °F 53.6 °F 72% 29.98 in 6.2 mi NNW 3.5 mph - N/A   Partly Cloudy
7:30 PM 62.6 °F 53.6 °F 72% 29.98 in 6.2 mi NW 5.8 mph - N/A   Partly Cloudy
8:00 PM 61 °F 54 °F 71% 29.98 in 16 mi NW 6.9 mph - -   Scattered Clouds
8:00 PM 60.8 °F 53.6 °F 77% 29.98 in 6.2 mi NW 6.9 mph - N/A   Partly Cloudy
8:30 PM 60.8 °F 55.4 °F 82% 29.98 in 6.2 mi WNW 5.8 mph - N/A   Partly Cloudy
9:00 PM 62.6 °F 55.4 °F 77% 29.98 in 6.2 mi NNW 4.6 mph - N/A   Partly Cloudy
9:30 PM 62.6 °F 55.4 °F 77% 29.98 in 6.2 mi NNW 5.8 mph - N/A   Partly Cloudy
10:00 PM 62.6 °F 55.4 °F 77% 29.98 in 6.2 mi NNW 4.6 mph - N/A   Partly Cloudy
10:30 PM 62.6 °F 57.2 °F 82% 29.98 in 6.2 mi NW 6.9 mph - N/A   Partly Cloudy
11:00 PM 62.6 °F 57.2 °F 82% 29.95 in 6.2 mi NW 4.6 mph - N/A   Partly Cloudy
11:30 PM 60.8 °F 55.4 °F 82% 29.98 in 6.2 mi WNW 5.8 mph - N/A   Partly Cloudy